Location: Plymouth
(43.7490°N, 87.9770°W)
Time: 17:48:27
(UTC-05:00)

Daily predictions for brighter satellites

Satellite Brightness Start Highest point End
(mag) Time Altitude Azimuth Time Altitude Azimuth Time Altitude Azimuth
Cosmos 2297 Rocket 4.0 21:06:33 10° SW 21:11:47 38° WNW 21:17:04 10° NNE
Cosmos 332 Rocket 4.3 21:09:44 10° N 21:14:30 48° ENE 21:19:14 10° SE
Tiangong 1 0.7 21:12:11 10° W 21:15:00 71° S 21:17:47 10° E
Cosmos 1802 Rocket 4.1 21:09:02 10° N 21:15:08 62° E 21:21:13 10° SSE
Terra 4.0 21:13:58 10° E 21:15:54 12° ENE 21:17:51 10° NE
ATLAS 5 CENTAUR R/B 2.7 21:12:15 10° SW 21:16:52 56° NW 21:21:56 10° NNE
Cosmos 2263 Rocket 3.4 21:13:25 10° SSE 21:17:27 21° E 21:21:29 10° NE
Cosmos 2208 Rocket 4.4 21:12:55 10° NNW 21:18:14 67° WSW 21:23:34 10° S
Helios 1B rocket 2.6 21:14:47 10° NNE 21:18:56 82° WNW 21:23:04 10° SSW
Abrixas 3.6 21:18:30 10° SSW 21:20:32 19° SE 21:22:36 10° E
Cosmos 1300 3.7 21:19:20 10° NNE 21:22:48 31° ENE 21:26:15 10° SE
Okean 3 Rocket 4.3 21:25:29 10° SSW 21:29:54 58° W 21:34:19 10° N
SAR-Lupe-4 4.3 21:29:44 10° S 21:33:13 51° W 21:36:44 10° NNW
Cosmos 1766 Rocket 3.5 21:30:47 10° S 21:35:05 79° E 21:39:28 10° N
USA 234 3.9 21:29:25 10° ENE 21:35:06 31° SE 21:40:45 10° S
Cosmos 2016 Rocket 4.0 21:29:54 10° N 21:36:11 75° E 21:42:20 10° SSE
Cosmos 1328 Rocket 4.0 21:32:01 10° N 21:36:13 46° ENE 21:40:04 12° SSE
Cosmos 1151 Rocket 4.3 21:32:30 10° NNE 21:36:15 27° ENE 21:39:31 12° SE
SPOT 1/Viking Rocket 4.2 21:33:04 11° SE 21:37:41 40° ENE 21:42:29 10° N
Helios 1A 4.4 21:33:56 10° SSW 21:37:45 36° W 21:41:36 10° NNW
SL-14 R/B 3.7 21:36:32 10° SSE 21:40:17 43° E 21:44:02 10° NNE
Cosmos 1242 Rocket 3.8 21:37:48 10° NNW 21:41:20 42° W 21:44:50 10° SSW
Meteor 1-21 Rocket 4.5 21:36:01 10° SSW 21:41:40 74° WNW 21:47:15 10° N
Cosmos 1356 Rocket 4.2 21:38:58 10° SSW 21:43:09 56° WNW 21:47:24 10° N
CZ-4B DEB 4.4 21:40:32 10° SSW 21:43:09 28° W 21:45:47 10° NW
Cosmos 1515 Rocket 4.1 21:40:29 10° N 21:44:36 41° ENE 21:47:59 14° SE
MetOp-A 4.2 21:40:10 10° SSE 21:45:31 88° ENE 21:50:55 10° NNW
Cosmos 468 Rocket 4.1 21:40:29 10° NNW 21:45:37 76° WSW 21:50:42 10° SSE
Cosmos 1674 3.9 21:42:59 10° SSW 21:46:34 42° WNW 21:50:09 10° N
CZ-4C R/B 4.0 21:46:15 10° ESE 21:46:58 10° ESE 21:47:50 10° E
ERS-1 Rocket 3.2 21:42:38 10° S 21:47:39 72° WSW 21:52:42 10° NNW
Cosmos 1603 3.9 21:44:40 10° NNW 21:50:19 70° WSW 21:55:39 11° SSE
H-2A R/B 3.9 21:47:37 10° ESE 21:50:23 17° ENE 21:53:09 10° NNE
RESURS DK-1 2.9 21:46:46 10° NW 21:50:52 56° WSW 21:54:38 12° S
Cosmos 1743 Rocket 3.7 21:46:41 10° S 21:50:52 52° E 21:55:05 10° NNE
EO 1 Delta rocket 4.1 21:47:12 13° SSE 21:51:11 52° ENE 21:55:47 10° N
USA 245 3.4 21:48:40 14° SSE 21:51:44 69° ENE 21:56:18 10° N
ARGOS 3.2 21:46:39 11° SSE 21:51:55 79° ENE 21:57:21 10° N
Cosmos 2058 3.9 21:50:47 15° SE 21:53:29 29° E 21:57:10 10° NNE
Cosmos 1328 3.9 21:49:49 10° S 21:53:48 63° E 21:57:48 10° NNE
Cosmos 1455 4.0 21:52:42 10° NNE 21:55:25 18° ENE 21:57:20 13° ESE
Cosmos 2233 Rocket 4.3 21:53:21 10° N 21:59:24 50° ENE 22:04:08 16° SSE
YAOGAN 11 4.2 21:55:56 13° SSE 21:59:55 86° ENE 22:04:31 10° NNW
Meteor 2-2 Rocket 4.4 21:56:38 10° NNW 22:02:28 83° W 22:08:08 11° S
Cosmos 1943 3.2 21:57:37 10° NNW 22:03:18 77° ENE 22:07:41 17° SSE
Cosmos 371 Rocket 3.4 21:58:36 10° NNW 22:03:26 76° WSW 22:07:24 15° SSE
Cosmos 2228 Rocket 3.1 21:58:51 10° N 22:03:28 85° E 22:07:15 15° S
Cosmos 220 Rocket 4.0 22:00:08 10° SSW 22:04:32 87° WNW 22:08:57 10° NNE
Cosmos 540 Rocket 4.4 22:00:18 10° N 22:05:01 35° ENE 22:08:29 16° ESE
SL-16 R/B 4.5 22:02:24 10° WNW 22:06:09 18° W 22:09:53 10° SW
ERBS 3.4 22:13:47 10° WNW 22:16:54 34° SW 22:18:29 22° S
GPS 2-05 Rocket1 4.5 22:16:27 10° SW 22:17:46 16° SSW 22:17:46 16° SSW
H-2A R/B 2.2 22:17:24 18° SSE 22:21:32 88° WSW 22:27:01 10° NNW
Lacrosse 5 3.2 22:23:46 10° WNW 22:28:03 28° SW 22:31:05 16° S
SPOT 5 3.5 22:24:13 14° S 22:28:19 53° W 22:33:23 10° NNW
H-2A ROCKET BODY 4.0 22:24:54 10° SSW 22:29:06 23° SE 22:40:10 10° ESE
Abrixas rocket 3.3 22:26:20 10° W 22:29:13 30° SW 22:29:56 27° S
SL-08 RB Rocket 4.3 22:25:51 16° S 22:29:25 55° W 22:33:59 10° NNW
Cosmos 2151 2.9 22:27:50 17° S 22:31:05 89° ENE 22:35:25 10° N
Landsat 7 3.8 22:35:07 24° SSE 22:38:01 85° WSW 22:42:48 10° NNW
Cosmos 1626 2.0 22:38:04 27° S 22:39:58 85° E 22:43:43 10° N
Cosmos 1356 3.9 22:38:51 19° SSW 22:41:13 60° WNW 22:44:41 10° N
Cosmos 1703 3.2 22:39:14 26° S 22:41:25 84° ESE 22:45:26 10° N
SL-19 R/B 4.5 22:36:23 10° NNE 22:41:37 50° E 22:44:40 25° SSE
Cosmos 1726 4.4 22:39:25 10° NW 22:42:06 19° W 22:44:46 10° SW
Cosmos 1707 Rocket 4.2 22:42:24 10° N 22:46:40 41° ENE 22:48:18 30° SE
deb Chang Zheng 4 4.0 22:43:37 10° NNE 22:47:50 46° E 22:49:17 33° SSE
Cosmos 1354 Rocket 3.9 22:45:33 14° SSW 22:50:03 89° ESE 22:55:20 10° NNE
Tiangong 1 2.3 22:47:52 10° W 22:49:35 25° SW 22:49:35 25° SW
Terra 1.8 22:50:32 30° SSE 22:52:56 86° WSW 22:57:44 10° NNW
Cosmos 841 Rocket 4.3 22:48:36 10° NNW 22:53:34 44° WSW 22:56:41 21° SSW
Cosmos 2285 Rocket 4.0 22:47:40 10° NNW 22:54:03 85° WSW 22:57:44 27° SSE
Abrixas 2.6 22:52:25 10° WSW 22:55:06 61° NNW 22:57:27 13° ENE
Cosmos 304 Rocket 3.9 22:55:02 10° NNW 22:59:48 67° WSW 23:01:55 32° S
PSLV R/B 3.1 23:00:31 59° ENE 23:00:32 59° ENE 23:03:22 10° N
Cosmos 2263 Rocket 2.7 22:55:24 10° SW 23:00:52 58° WNW 23:06:25 10° NNE
Cosmos 1666 Rocket 3.9 23:02:20 38° SE 23:03:32 48° E 23:07:49 10° NNE
IGS 5A 3.7 23:02:53 35° S 23:04:31 65° W 23:08:40 10° NNW
CARTOSAT-1 3.8 23:03:22 32° S 23:05:12 61° WSW 23:09:30 10° NNW
CZ-4 R/B 3.8 23:01:05 10° NNE 23:05:54 66° ESE 23:07:46 36° S
Cosmos 2084 Rocket 3.5 23:09:42 10° NNW 23:13:29 58° NE 23:14:27 43° ESE
Cosmos 1805 Rocket 3.5 23:12:38 38° SSW 23:14:16 85° W 23:18:38 10° N
Cosmos 783 Rocket 4.5 23:10:15 10° NNW 23:15:36 85° ENE 23:17:40 38° SSE
Cosmos 1633 Rocket 3.2 23:16:57 46° SE 23:17:52 56° E 23:22:09 10° NNE
USA 234 3.3 23:11:57 10° NE 23:18:30 80° NW 23:25:02 10° WSW
COSMOS 2406 3.5 23:14:11 10° NNW 23:19:48 60° ENE 23:22:18 33° SE
Cosmos 1464 Rocket 3.9 23:15:07 10° N 23:21:19 87° W 23:24:20 33° S
H-2A R/B 2.6 23:24:41 34° SSW 23:26:04 48° W 23:30:10 10° NNW
Spot 4 3.9 23:29:02 41° S 23:30:41 72° WSW 23:35:35 10° NNW
Cosmos 1455 3.5 23:27:45 10° NNW 23:31:12 32° W 23:32:20 26° SW
Cosmos 1844 Rocket 2.7 23:31:42 40° SSE 23:33:29 59° ESE 23:38:58 10° NNE
SL-19 R/B 3.9 23:34:11 62° NNW 23:34:11 62° NNW 23:36:45 10° NNW
SL-24 R/B - RUBIN 2 3.9 23:28:13 10° NNW 23:33:47 78° NE 23:35:27 43° SE
CZ-4C R/B 2.0 23:31:21 29° SSW 23:34:08 78° ESE 23:40:07 10° NE
CZ-4B R/B 3.8 23:41:59 10° N 23:47:13 66° WNW 23:49:41 31° SW
Cosmos 1470 Rocket 3.5 23:50:24 58° SE 23:50:57 65° E 23:55:23 10° NNE
In-Cosmos 22 Rocket 4.3 23:51:57 44° SSE 23:53:24 59° E 23:58:56 10° NNE
